This is the latest recevied weather packets stored in our database for station/object KF4PPJ. If no packets are shown the sender has not sent any weather packets the latest 10 day(s).
| Time | Temp. | Humidity | Pressure | Rain* | Wind** | Luminosity | Snow |
|---|---|---|---|---|---|---|---|
| 1788140448 | 69° F | 55% | 765.5 mmHg | 0 in | - | 47 W/m² | - |
| 1788140144 | 69° F | 51% | 765.6 mmHg | 0 in | - | 53 W/m² | - |
| 1788139843 | 69° F | 52% | 765.4 mmHg | 0 in | - | 55 W/m² | - |
| 1788139538 | 69° F | 51% | 765.6 mmHg | 0 in | - | 60 W/m² | - |
| 1788139233 | 69° F | 51% | 765.6 mmHg | 0 in | - | 69 W/m² | - |
| 1788138932 | 69° F | 50% | 765.7 mmHg | 0 in | - | 68 W/m² | - |
| 1788138628 | 69° F | 49% | 765.7 mmHg | 0 in | - | 73 W/m² | - |
| 1788138323 | 70° F | 49% | 765.7 mmHg | 0 in | - | 89 W/m² | - |
| 1788138019 | 70° F | 49% | 765.7 mmHg | 0 in | - | 88 W/m² | - |
| 1788137719 | 71° F | 48% | 765.7 mmHg | 0 in | - | 103 W/m² | - |
| 1788137419 | 72° F | 47% | 765.7 mmHg | 0 in | - | 253 W/m² | - |
| 1788137115 | 72° F | 47% | 765.6 mmHg | 0 in | - | 179 W/m² | - |
| 1788136811 | 72° F | 46% | 765.7 mmHg | 0 in | - | 285 W/m² | - |
| 1788136507 | 73° F | 46% | 765.8 mmHg | 0 in | - | 255 W/m² | - |
| 1788136202 | 73° F | 45% | 765.6 mmHg | 0 in | - | 252 W/m² | - |
| 1788135901 | 72° F | 48% | 765.8 mmHg | 0 in | - | 310 W/m² | - |
| 1788135595 | 72° F | 47% | 766 mmHg | 0 in | - | 322 W/m² | - |
| 1788135291 | 71° F | 48% | 765.9 mmHg | 0 in | - | 318 W/m² | - |
| 1788134988 | 71° F | 48% | 766 mmHg | 0 in | - | 334 W/m² | - |
| 1788134683 | 72° F | 47% | 766 mmHg | 0 in | - | 366 W/m² | - |
| 1788134381 | 73° F | 46% | 766.2 mmHg | 0 in | - | 369 W/m² | - |
| 1788134077 | 72° F | 46% | 766 mmHg | 0 in | - | 379 W/m² | - |
| 1788133772 | 72° F | 46% | 766 mmHg | 0 in | - | 462 W/m² | - |
| 1788133467 | 72° F | 49% | 766.1 mmHg | 0 in | - | 425 W/m² | - |
| 1788133162 | 72° F | 49% | 766.1 mmHg | 0 in | - | 432 W/m² | - |
* Rain latest hour (hover to see other rain measurements)
** Current wind speed in m/s (hover to see current wind gust speed)